Regional Weather Roundup
Issued by NWS

Home | Current Version | Previous Version | Text Only | Print | Product List | Glossary On
Versions: 1 2 3 4 5 6 7 8 9 10 11 12 13 14 15 16 17 18 19 20 21 22 23 24 25 26 27 28 29 30 31 32 33 34 35 36 37 38 39 40 41 42 43 44 45 46 47 48 49 50
000
ASUS43 KDTX 221310
RWRMI
MICHIGAN HOURLY REGIONAL WEATHER ROUNDUP
NATIONAL WEATHER SERVICE DETROIT/PONTIAC MI
800 AM EST WED NOV 22 2017

NOTE: "FAIR" INDICATES FEW OR NO CLOUDS BELOW 12,000 FEET WITH NO
SIGNIFICANT WEATHER AND/OR OBSTRUCTION TO VISIBILITY.

MIZ047>049-052>055-059>063-066>070-074>076-081>083-221400-
SOUTHEAST LOWER MICHIGAN

CITY           SKY/WX    TMP DP  RH WIND       PRES   REMARKS
ADRIAN         CLOUDY    30  19  63 N9        30.26R WCI  22
ALMA           CLOUDY    29  19  64 W7        30.27R WCI  22
ANN ARBOR      CLOUDY    29  16  58 NW10      30.25R WCI  20
BAD AXE        CLOUDY    28  17  64 N7        30.22R WCI  21
CARO           CLOUDY    29  21  74 W7        30.23R WCI  22
DETROIT CITY   CLEAR     30  15  53 NW5       30.24R WCI  25
DETROIT        MOCLDY    30  15  53 NW9       30.25R WCI  22
FLINT          CLOUDY    29  18  63 NW10      30.25R WCI  20
GROSSE ILE     CLOUDY    31  19  59 N10G16    30.23R WCI  22
HILLSDALE      CLOUDY    30  19  64 N13       30.23R WCI  20
HOWELL         CLOUDY    28  19  67 NW6       30.24R WCI  22

CITY           SKY/WX    TMP DP  RH WIND       PRES   REMARKS
JACKSON        CLOUDY    29  15  56 NW8       30.26R WCI  21
LAMBERTVILLE   CLOUDY    33  22  63 N7        30.25R WCI  27
LANSING        CLOUDY    28  17  63 NW8       30.27R WCI  20
LAPEER         CLOUDY    28  19  68 NW6       30.23R WCI  22
MASON          CLOUDY    29  18  61 W6        30.26R WCI  23
MONROE         CLOUDY    32  17  53 NW7       30.24R WCI  26
MT. CLEMENS    MOCLDY    30  18  60 NW10      30.21R WCI  21
PONTIAC        MOCLDY    27  18  69 NW5       30.22R WCI  22
PORT HOPE        N/A     30  18  60 NW16G22   30.19R WCI  19
PORT HURON     CLOUDY    30  18  59 N8        30.22R WCI  23
TRI CITIES     CLOUDY    29  21  72 NW7       30.25R WCI  22
MIDLAND        CLOUDY    29  21  71 CALM      30.25R
TROY           CLEAR     31  19  58 W7        30.25R WCI  25
SAGINAW HB     CLOUDY    28  21  74 NW7       30.24R WCI  21
$$
MIZ043>046-050>051-056>058-064>065-071>073-077>080-221400-
SOUTHWEST LOWER MICHIGAN

CITY           SKY/WX    TMP DP  RH WIND       PRES   REMARKS
BATTLE CREEK   CLOUDY    29  17  61 N6        30.27R WCI  23
BENTON HARBOR  CLOUDY    31  19  61 E3        30.29R
BIG RAPIDS     FLURRIES  27  20  74 NW3       30.24R
COLDWATER      CLOUDY    29  18  61 NW7       30.26R WCI  22
FREMONT        CLOUDY    29  18  64 NW6       30.26S WCI  23
HOLLAND        CLOUDY    30  19  63 CALM      30.29R
GRAND RAPIDS   CLOUDY    29  19  66 NW7       30.27R WCI  22
IONIA          CLOUDY    29  18  62 NW3       30.26R
KALAMAZOO      CLOUDY    29  14  53 N6        30.28R WCI  23
LUDINGTON      CLOUDY    29  16  58 CALM      30.27R
MARSHALL       CLOUDY    28  15  58 N3        30.27R
MOUNT PLEASANT CLOUDY    30  18  61 W5        30.24R WCI  25
MUSKEGON       CLOUDY    31  18  58 N5        30.29R WCI  26
SOUTH HAVEN    CLOUDY    31  19  61 CALM      30.29R
$$
MIZ016>042-221400-
NORTHERN LOWER MICHIGAN

CITY           SKY/WX    TMP DP  RH WIND       PRES   REMARKS
ALPENA         MOCLDY    25  21  85 W3        30.22R
BEAVER ISLAND  CLOUDY    28  22  76 W7        30.22R WCI  21
BELLAIRE       CLOUDY    28  22  79 CALM      30.23R
CADILLAC       CLOUDY    25  20  79 W3        30.20S
CHARLEVOIX     CLOUDY    30  18  59 NW7       30.24S WCI  23
FRANKFORT      CLOUDY    31  19  62 W9        30.24S WCI  23
GAYLORD        CLOUDY    22  19  89 CALM      30.18R
GRAYLING       FLURRIES  25  19  78 W6        30.21R WCI  18
HARBOR SPRINGS CLOUDY    28  16  61 CALM      30.21R
HOUGHTON LAKE  LGT SNOW  24  20  84 NW6       30.22R FOG     WCI  17
MANISTEE       FLURRIES  29  19  66 NW6       30.25S WCI  23
OSCODA         MOCLDY    20  15  82 W3        30.22R
PELLSTON       PTCLDY    23  16  74 CALM      30.21R
ROGERS CITY    CLOUDY    26  20  80 W5        30.22R WCI  20
TRAVERSE CITY  FLURRIES  29  17  61 W3        30.23R
$$
MIZ007>008-015-221400-
EASTERN UPPER MICHIGAN

CITY           SKY/WX    TMP DP  RH WIND       PRES   REMARKS
KINROSS        LGT SNOW  21  19  93 SW5       30.17S FOG     WCI  15
MACKINAC ISLAN PTCLDY    27  20  76 W8        30.18F WCI  18
NEWBERRY       CLOUDY    23  22  97 SW6       30.18R WCI  15
S. S. MARIE    LGT SNOW  21  18  88 E5        30.17R VSB 1   WCI  15
$$
MIZ004>006-011>014-085-221400-
CENTRAL UPPER MICHIGAN

CITY           SKY/WX    TMP DP  RH WIND       PRES   REMARKS
MANISTIQUE     CLOUDY    23  16  73 W8        30.22R WCI  14
ESCANABA       FLURRIES  25  17  72 W9        30.25R WCI  15
MENOMINEE      CLOUDY    23  14  68 CALM      30.29R
SAWYER-GWINN   CLOUDY    21  16  79 W6        30.21R WCI  14
$$
MIZ001>003-009>011-084-221400-
WESTERN UPPER MICHIGAN

CITY           SKY/WX    TMP DP  RH WIND       PRES   REMARKS
IRON MOUNTAIN  CLOUDY    22  13  68 W6        30.23R WCI  14
HOUGHTON       CLOUDY    24  16  71 W7        30.18F WCI  16
IRONWOOD       CLOUDY    12   9  87 SW6       30.24S WCI   3
$$

ABBREVIATIONS USED IN REMARKS
   TC - TEMPERATURE IN CELSIUS
  WCI - WIND CHILL INDEX
   HX - HEAT INDEX
  VSB - VISIBILITY





USA.gov is the U.S. government's official web portal to all federal, state and local government web resources and services.